Voltar ao catálogo

STARLINK-3073

AtivoComunicaçõesVLEO
NORAD 49135·PAYLOAD·🇺🇸 United States

Lançado Sep 14, 2021 de Vandenberg Space Force Base

Loading…

Próximas Passagens (próximas 24 horas)

TLE

AtualizadoSource: CelesTrak SupGP

Época: Sep 15, 2026, 01:08 UTC

1 49135C 21082F   26258.04770833  .00016483  00000+0  13813-2 0  2587
2 49135  70.0002 137.0011 0002918 270.6775 240.2527 14.98323936    11

Acompanhe STARLINK-3073 em tempo real com AllMySat

Download on the App Store